Flag for Canada Weather past 2 weeks in Gatineau, Quebec, Canada

Now
3 °F

Broken clouds.


Feels Like: -4 °F
Forecast: -5 / 25 °F
Wind: 3 mph from Southeast

Location: Ottawa Int'L. Ont.

Current Time: Mar 1, 2015 at 7:43:38 AM

Latest Report: Mar 1, 2015 at 7:00 AM


Visibility: 15 mi

Pressure: 30.57 "Hg

Humidity: 85%

Dew point: 0 °F

Location of GatineauLocation

Historic Weather in Gatineau — Graph

°F

Gatineau temperature yesterday

Maximum temperature yesterday: 23 °F (at 3:00 PM)
Minimum temperature yesterday: -2 °F (at 5:00 AM)
Average temperature yesterday: 10 °F

Past Weeks' High & Low Weather Summary

 TemperatureHumidityPressure
High25 °F (Feb 22, 1:00 PM)93% (Feb 22, 8:00 PM)30.74 "Hg (Feb 22, 8:00 PM)
Low-15 °F (Feb 16, 5:00 AM)32% (Feb 27, 3:00 PM)29.60 "Hg (Feb 25, 5:00 AM)
Average3 °F66%30.11 "Hg
* Reported Feb 14 6:00 AM — Mar 1 6:00 AM, Gatineau, Weather by CustomWeather, © 2015

Note: Actual official high and low records may vary slightly from our data, if they occured in-between our weather recording intervals... More about our weather records

Advertising

Gatineau weather history for previous 24 hours

 ConditionsComfort  
Time TempWeatherWind HumidityBarometerVisibility
6:00 AM
Sun, Mar 1
5 °FMostly cloudy.6 mph85%30.59 "Hg15 mi
5:00 AM5 °FPassing clouds.6 mph92%30.59 "Hg15 mi
4:00 AM3 °FClear.7 mph92%30.60 "Hg15 mi
3:00 AM5 °FClear.7 mph85%30.61 "Hg15 mi
2:00 AM5 °FClear.6 mph92%30.65 "Hg15 mi
1:00 AM7 °FClear.2 mph85%30.63 "Hg15 mi
12:00 AM9 °FClear.6 mph85%30.65 "Hg15 mi
11:00 PM
Sat, Feb 28
10 °FClear.8 mph85%30.66 "Hg15 mi
10:00 PM12 °FClear.7 mph85%30.67 "Hg15 mi
9:00 PM14 °FClear.8 mph79%30.66 "Hg15 mi
8:00 PM16 °FClear.13 mph79%30.66 "Hg15 mi
7:00 PM18 °FClear.16 mph79%30.66 "Hg15 mi
6:00 PM18 °FClear.12 mph62%30.65 "Hg15 mi
5:00 PM19 °FSunny.14 mph58%30.65 "Hg15 mi
4:00 PM23 °FSunny.15 mph46%30.66 "Hg15 mi
3:00 PM23 °FPassing clouds.16 mph42%30.66 "Hg15 mi
2:00 PM21 °FPassing clouds.15 mph49%30.68 "Hg15 mi
1:00 PM19 °FPassing clouds.10 mph53%30.70 "Hg15 mi
12:00 PM18 °FPassing clouds.9 mph53%30.72 "Hg15 mi
11:00 AM14 °FScattered clouds.10 mph57%30.73 "Hg15 mi
10:00 AM10 °FSunny.8 mph67%30.74 "Hg15 mi
9:00 AM5 °FSunny.12 mph72%30.73 "Hg15 mi
8:00 AM1 °FSunny.10 mph71%30.71 "Hg15 mi
7:00 AM-2 °FSunny.9 mph77%30.69 "Hg15 mi
Weather by CustomWeather, © 2015

See weather overviewHow to use our weather pages